Location: Cañada de la Miga
(34.7595°N, 106.2317°W)
Time: 21:53:06
(UTC+00:00)

Tiros 1 - All Passes

Search period start: 06 December 2021 00:00
Search period end: 16 December 2021 00:00
Orbit: 630 x 663 km, 48.4° (Epoch: 05 December)

Date Brightness Start Highest point End Pass type
(mag) Time Alt. Az. Time Alt. Az. Time Alt. Az.
06 Dec - 01:41:36 10° W 01:45:35 28° NNW 01:49:38 10° NE visible
06 Dec - 03:26:15 10° NW 03:29:00 15° N 03:31:46 10° NNE visible
06 Dec - 05:09:00 10° NNW 05:12:35 21° NNE 05:16:12 10° ENE night (unlit)
06 Dec - 06:50:41 10° NW 06:55:25 70° NE 07:00:11 10° ESE night (unlit)
06 Dec - 08:33:52 10° W 08:37:14 19° SW 08:40:37 10° S night (unlit)
06 Dec - 22:43:26 10° S 22:47:08 24° SE 22:50:51 10° ENE daylight
07 Dec - 00:24:30 10° WSW 00:29:02 55° NNW 00:33:37 10° NE visible
07 Dec - 02:08:42 10° WNW 02:12:00 19° NNW 02:15:20 10° NNE visible
07 Dec - 03:52:46 10° NNW 03:55:38 16° N 03:58:30 10° NE night (unlit)
07 Dec - 05:34:40 10° NW 05:38:56 33° NNE 05:43:14 10° E night (unlit)
07 Dec - 07:16:41 10° WNW 07:21:16 52° SW 07:25:54 10° SSE night (unlit)
07 Dec - 23:08:16 10° SW 23:12:47 60° SE 23:17:22 10° ENE daylight
08 Dec - 00:51:09 10° W 00:55:12 29° NNW 00:59:18 10° NE visible
08 Dec - 02:35:49 10° NW 02:38:35 15° N 02:41:21 10° NNE visible
08 Dec - 04:18:41 10° NNW 04:22:11 20° NNE 04:25:41 10° ENE night (unlit)
08 Dec - 06:00:22 10° NW 06:05:03 64° NE 06:09:47 10° ESE night (unlit)
08 Dec - 07:43:21 10° W 07:46:55 21° SW 07:50:30 10° S night (unlit)
08 Dec - 21:53:19 10° S 21:56:49 22° SE 22:00:21 10° E daylight
08 Dec - 23:34:07 10° WSW 23:38:41 60° NW 23:43:16 10° NE daylight
09 Dec - 01:18:14 10° WNW 01:21:36 19° NNW 01:24:59 10° NNE visible
09 Dec - 03:02:24 10° NNW 03:05:13 15° N 03:08:01 10° NE visible
09 Dec - 04:44:21 10° NW 04:48:33 31° NNE 04:52:46 10° E night (unlit)
09 Dec - 06:26:18 10° WNW 06:30:56 57° SW 06:35:35 10° SE night (unlit)
09 Dec - 22:17:59 10° SW 22:22:28 54° SE 22:26:59 10° ENE daylight
10 Dec - 00:00:42 10° W 00:04:49 31° NNW 00:08:58 10° NE daylight
10 Dec - 01:45:23 10° NW 01:48:09 15° N 01:50:56 10° NNE visible
10 Dec - 03:28:22 10° NNW 03:31:45 19° NNE 03:35:10 10° ENE visible
10 Dec - 05:10:02 10° NW 05:14:41 59° NE 05:19:22 10° ESE night (unlit)
10 Dec - 06:52:51 10° W 06:56:36 23° SW 07:00:21 10° S night (unlit)
10 Dec - 21:03:13 10° S 21:06:31 20° SE 21:09:50 10° E daylight
10 Dec - 22:43:45 10° WSW 22:48:19 65° NW 22:52:57 10° NE daylight
11 Dec - 00:27:45 10° WNW 00:31:11 20° NNW 00:34:37 10° NNE visible
11 Dec - 02:12:02 10° NNW 02:14:47 15° N 02:17:31 10° NE visible
11 Dec - 03:54:03 10° NW 03:58:09 29° NNE 04:02:17 10° E night (unlit)
11 Dec - 05:35:56 10° WNW 05:40:36 63° SW 05:45:17 10° SE night (unlit)
11 Dec - 21:27:43 10° SSW 21:32:08 48° SE 21:36:36 10° ENE daylight
11 Dec - 23:10:15 10° W 23:14:26 33° NNW 23:18:38 10° NE daylight
12 Dec - 00:54:55 10° NW 00:57:43 16° N 01:00:32 10° NNE visible
12 Dec - 02:38:03 10° NNW 02:41:21 19° NNE 02:44:39 10° ENE visible
12 Dec - 04:19:43 10° NW 04:24:19 54° NNE 04:28:58 10° ESE night (unlit)
12 Dec - 06:02:24 10° WNW 06:06:17 26° SW 06:10:12 10° S night (unlit)
12 Dec - 20:13:09 10° S 20:16:14 18° SE 20:19:17 10° E daylight
12 Dec - 21:53:23 10° WSW 21:57:58 71° NW 22:02:36 10° NE daylight
12 Dec - 23:37:16 10° WNW 23:40:46 21° NNW 23:44:17 10° NNE daylight
13 Dec - 01:21:39 10° NNW 01:24:21 15° N 01:27:03 10° NE visible
13 Dec - 03:03:45 10° NW 03:07:45 27° NNE 03:11:47 10° E visible
13 Dec - 04:45:34 10° WNW 04:50:15 69° SW 04:54:57 10° SE night (unlit)
13 Dec - 20:37:27 10° SSW 20:41:49 44° SE 20:46:12 10° ENE daylight
13 Dec - 22:19:49 10° W 22:24:03 35° NNW 22:28:19 10° NE daylight
14 Dec - 00:04:27 10° NW 00:07:18 16° N 00:10:08 10° NNE daylight
14 Dec - 01:47:44 10° NNW 01:50:55 18° NNE 01:54:08 10° ENE visible
14 Dec - 03:29:24 10° NW 03:33:56 49° NNE 03:38:31 10° ESE visible
14 Dec - 05:11:56 10° WNW 05:15:57 28° SW 05:20:00 10° SSE night (unlit)
14 Dec - 19:23:08 10° SSE 19:25:55 16° SE 19:28:42 10° E daylight
14 Dec - 21:03:01 10° WSW 21:07:38 78° NW 21:12:15 10° NE daylight
14 Dec - 22:46:47 10° WNW 22:50:22 22° NNW 22:53:57 10° NNE daylight
15 Dec - 00:31:15 10° NNW 00:33:54 15° N 00:36:34 10° NE visible
15 Dec - 02:13:26 10° NW 02:17:21 26° NNE 02:21:17 10° E visible
15 Dec - 03:55:13 10° NW 03:59:54 76° SW 04:04:37 10° SE night (unlit)
15 Dec - 05:40:13 10° WSW 05:41:28 11° SW 05:42:43 10° SW night (unlit)
15 Dec - 19:47:12 10° SSW 19:51:29 39° SE 19:55:48 10° ENE daylight
15 Dec - 21:29:22 10° W 21:33:40 37° NNW 21:38:00 10° NE daylight
15 Dec - 23:13:59 10° NW 23:16:52 16° N 23:19:46 10° NNE daylight
